AUA40Y LOWW-LEBL

Flight info

Callsign AUA40Y
Flight time 2h 5m
Altitude 38000
Route OSPEN DCT ABRUK DCT SETAL DCT DETSA/N0442F370 DCT GEKBA DCT VAMTU DCT KOLON DCT GANGU DCT PADKO DCT DIVKO DCT NILDU N975 BISBA
Aircraft A320/M-SDE3FGHIRWY/LB1

Departure

Time 2026-05-05 16:17
Airport Vienna International Airport (LOWW)

Arrival

Time 2026-05-05 18:23
Airport Josep Tarradellas Barcelona-El Prat Airport (LEBL)
Time Latitude Longitude Altitude Speed Heading
2026-05-05 15:43 48.11862 16.56876 610 ft 0 kts 206°
2026-05-05 16:07 48.11875 16.56885 610 ft 4 kts 204°
2026-05-05 16:07 48.11900 16.56899 615 ft 4 kts 193°
2026-05-05 16:07 48.11925 16.56902 616 ft 4 kts 158°
2026-05-05 16:08 48.11937 16.56889 610 ft 0 kts 116°
2026-05-05 16:13 48.11937 16.56890 610 ft 1 kts 116°
2026-05-05 16:13 48.11913 16.56964 618 ft 13 kts 116°
2026-05-05 16:13 48.11871 16.57093 624 ft 14 kts 115°
2026-05-05 16:14 48.11807 16.57394 610 ft 16 kts 87°
2026-05-05 16:14 48.11854 16.57648 615 ft 0 kts 74°
2026-05-05 16:15 48.11860 16.57729 616 ft 19 kts 94°
2026-05-05 16:15 48.11728 16.57923 617 ft 4 kts 164°
2026-05-05 16:16 48.11093 16.58192 613 ft 108 kts 164°
2026-05-05 16:16 48.09110 16.59045 972 ft 171 kts 166°
2026-05-05 16:17 48.06541 16.60103 1945 ft 212 kts 173°
2026-05-05 16:17 48.05024 16.60104 2528 ft 228 kts 198°
2026-05-05 16:18 48.02666 16.56800 4371 ft 242 kts 231°
2026-05-05 16:18 48.01633 16.54793 5293 ft 245 kts 229°
2026-05-05 16:18 47.99447 16.50796 7097 ft 253 kts 231°
2026-05-05 16:19 47.98653 16.48419 7914 ft 261 kts 245°
2026-05-05 16:19 47.97983 16.45883 8849 ft 263 kts 247°
2026-05-05 16:19 47.96640 16.40656 10259 ft 282 kts 246°
2026-05-05 16:20 47.95135 16.34826 11252 ft 310 kts 246°
2026-05-05 16:20 47.93558 16.28716 12652 ft 323 kts 248°
2026-05-05 16:21 47.91911 16.22364 14054 ft 332 kts 248°
2026-05-05 16:22 47.89365 16.12600 16027 ft 342 kts 248°
2026-05-05 16:22 47.87611 16.05894 17305 ft 350 kts 248°
2026-05-05 16:23 47.85828 15.99097 18574 ft 355 kts 246°
2026-05-05 16:23 47.84923 15.95658 19139 ft 359 kts 247°
2026-05-05 16:23 47.83081 15.88683 20237 ft 363 kts 246°
2026-05-05 16:24 47.82169 15.85235 20856 ft 364 kts 246°
2026-05-05 16:24 47.81233 15.81707 21393 ft 368 kts 247°
2026-05-05 16:24 47.79328 15.74531 22336 ft 376 kts 246°
2026-05-05 16:25 47.78366 15.70911 22935 ft 376 kts 245°
2026-05-05 16:25 47.76419 15.63603 23666 ft 386 kts 245°
2026-05-05 16:25 47.75430 15.59895 23780 ft 384 kts 246°
2026-05-05 16:26 47.73469 15.52568 23809 ft 381 kts 246°
2026-05-05 16:26 47.71490 15.45217 23799 ft 383 kts 245°
2026-05-05 16:27 47.70507 15.41556 23802 ft 379 kts 246°
2026-05-05 16:27 47.69527 15.37915 23819 ft 381 kts 245°
2026-05-05 16:27 47.68597 15.34471 23816 ft 383 kts 246°
2026-05-05 16:27 47.67600 15.30795 23816 ft 382 kts 247°
2026-05-05 16:28 47.66618 15.27185 23816 ft 380 kts 245°
2026-05-05 16:28 47.65673 15.23717 23809 ft 385 kts 244°
2026-05-05 16:28 47.64664 15.20014 23811 ft 390 kts 246°
2026-05-05 16:28 47.63648 15.16280 23824 ft 389 kts 246°
2026-05-05 16:29 47.62633 15.12557 23825 ft 389 kts 246°
2026-05-05 16:29 47.61620 15.08841 23826 ft 389 kts 245°
2026-05-05 16:29 47.60663 15.05323 23812 ft 391 kts 246°
2026-05-05 16:29 47.59641 15.01584 23815 ft 390 kts 246°
2026-05-05 16:30 47.58622 14.97873 23817 ft 387 kts 245°
2026-05-05 16:30 47.57605 14.94176 23833 ft 388 kts 246°
2026-05-05 16:30 47.56587 14.90475 23829 ft 389 kts 246°
2026-05-05 16:30 47.55555 14.86744 24069 ft 393 kts 246°
2026-05-05 16:31 47.54520 14.83004 24595 ft 392 kts 245°
2026-05-05 16:31 47.53485 14.79262 25042 ft 394 kts 246°
2026-05-05 16:31 47.52440 14.75489 25432 ft 398 kts 246°
2026-05-05 16:31 47.51387 14.71691 25821 ft 401 kts 246°
2026-05-05 16:32 47.50325 14.67863 26227 ft 403 kts 246°
2026-05-05 16:32 47.49296 14.64166 26598 ft 405 kts 246°
2026-05-05 16:32 47.48236 14.60370 27071 ft 405 kts 246°
2026-05-05 16:32 47.47157 14.56517 27524 ft 406 kts 246°
2026-05-05 16:33 47.46422 14.53890 27815 ft 407 kts 246°
2026-05-05 16:33 47.45689 14.51269 28068 ft 409 kts 246°
2026-05-05 16:33 47.44194 14.46567 28491 ft 411 kts 244°
2026-05-05 16:34 47.43058 14.42684 28844 ft 414 kts 246°
2026-05-05 16:34 47.41993 14.38727 29250 ft 415 kts 247°
2026-05-05 16:34 47.40950 14.34735 29593 ft 418 kts 247°
2026-05-05 16:34 47.39889 14.30718 29927 ft 421 kts 246°
2026-05-05 16:35 47.38799 14.26705 30227 ft 422 kts 246°
2026-05-05 16:35 47.37679 14.22693 30516 ft 424 kts 246°
2026-05-05 16:35 47.36537 14.18678 30784 ft 425 kts 246°
2026-05-05 16:35 47.35770 14.16011 30967 ft 427 kts 246°
2026-05-05 16:36 47.34231 14.10671 31367 ft 428 kts 246°
2026-05-05 16:36 47.33070 14.06631 31804 ft 425 kts 246°
2026-05-05 16:36 47.31925 14.02630 32258 ft 423 kts 246°
2026-05-05 16:36 47.30784 13.98640 32673 ft 422 kts 247°
2026-05-05 16:37 47.30032 13.96006 32897 ft 421 kts 247°
2026-05-05 16:37 47.28896 13.92034 33330 ft 420 kts 247°
2026-05-05 16:37 47.27762 13.88074 33716 ft 419 kts 247°
2026-05-05 16:37 47.26628 13.84128 34089 ft 418 kts 247°
2026-05-05 16:38 47.25496 13.80197 34434 ft 417 kts 247°
2026-05-05 16:38 47.24363 13.76271 34754 ft 416 kts 247°
2026-05-05 16:38 47.23233 13.72367 35143 ft 414 kts 247°
2026-05-05 16:38 47.22110 13.68483 35511 ft 412 kts 247°
2026-05-05 16:39 47.20990 13.64611 35811 ft 411 kts 247°
2026-05-05 16:39 47.19867 13.60741 36066 ft 411 kts 247°
2026-05-05 16:39 47.18742 13.56882 36367 ft 410 kts 247°
2026-05-05 16:39 47.17618 13.53027 36652 ft 410 kts 247°
2026-05-05 16:40 47.16490 13.49170 36898 ft 410 kts 247°
2026-05-05 16:40 47.15362 13.45321 37119 ft 411 kts 247°
2026-05-05 16:40 47.14230 13.41463 37349 ft 411 kts 247°
2026-05-05 16:40 47.13101 13.37615 37549 ft 411 kts 247°
2026-05-05 16:41 47.11969 13.33754 37750 ft 411 kts 247°
2026-05-05 16:41 47.10836 13.29894 37885 ft 413 kts 247°
2026-05-05 16:41 47.08581 13.22228 37894 ft 409 kts 247°
2026-05-05 16:42 47.06317 13.14582 37893 ft 408 kts 247°
2026-05-05 16:42 47.04047 13.06953 37910 ft 406 kts 246°
2026-05-05 16:43 47.01802 12.99407 37907 ft 403 kts 246°
2026-05-05 16:43 46.99562 12.91885 37909 ft 403 kts 246°
2026-05-05 16:44 46.97313 12.84377 37922 ft 402 kts 246°
2026-05-05 16:44 46.95064 12.76875 37935 ft 403 kts 245°
2026-05-05 16:45 46.92801 12.69372 37958 ft 403 kts 246°
2026-05-05 16:45 46.90552 12.61916 37968 ft 403 kts 246°
2026-05-05 16:46 46.88294 12.54434 37978 ft 402 kts 245°
2026-05-05 16:46 46.86014 12.46951 38008 ft 402 kts 245°
2026-05-05 16:47 46.83737 12.39495 38024 ft 402 kts 245°
2026-05-05 16:47 46.81457 12.32051 38035 ft 401 kts 245°
2026-05-05 16:48 46.78659 12.25038 38069 ft 401 kts 233°
2026-05-05 16:48 46.75288 12.18561 37982 ft 400 kts 233°
2026-05-05 16:49 46.71936 12.12134 37961 ft 400 kts 233°
2026-05-05 16:49 46.68612 12.05764 37956 ft 401 kts 233°
2026-05-05 16:50 46.65234 11.99294 37968 ft 401 kts 233°
2026-05-05 16:50 46.61850 11.92839 37967 ft 401 kts 233°
2026-05-05 16:51 46.58454 11.86390 37972 ft 401 kts 233°
2026-05-05 16:51 46.55067 11.79957 37971 ft 401 kts 233°
2026-05-05 16:52 46.51672 11.73520 37981 ft 401 kts 233°
2026-05-05 16:52 46.48274 11.67102 37979 ft 401 kts 232°
2026-05-05 16:53 46.44876 11.60697 37983 ft 401 kts 232°
2026-05-05 16:53 46.41498 11.54346 37979 ft 400 kts 232°
2026-05-05 16:54 46.38090 11.47957 37974 ft 400 kts 232°
2026-05-05 16:54 46.34685 11.41576 37980 ft 401 kts 233°
2026-05-05 16:55 46.31273 11.35202 37987 ft 401 kts 232°
2026-05-05 16:55 46.27853 11.28838 37992 ft 401 kts 232°
2026-05-05 16:56 46.24427 11.22483 38089 ft 401 kts 232°
2026-05-05 16:56 46.21012 11.16135 38082 ft 399 kts 232°
2026-05-05 16:57 46.17604 11.09817 38076 ft 398 kts 232°
2026-05-05 16:57 46.14197 11.03528 38063 ft 397 kts 232°
2026-05-05 16:58 46.10792 10.97252 38060 ft 397 kts 232°
2026-05-05 16:58 46.07405 10.91024 38046 ft 397 kts 232°
2026-05-05 16:59 46.03997 10.84789 38014 ft 397 kts 232°
2026-05-05 16:59 46.00581 10.78546 38010 ft 397 kts 232°
2026-05-05 17:00 45.97161 10.72301 38033 ft 397 kts 232°
2026-05-05 17:00 45.93740 10.66062 38038 ft 397 kts 232°
2026-05-05 17:01 45.90326 10.59844 38023 ft 396 kts 232°
2026-05-05 17:01 45.86911 10.53636 38004 ft 396 kts 232°
2026-05-05 17:02 45.83509 10.47488 37997 ft 396 kts 232°
2026-05-05 17:02 45.80078 10.41288 38004 ft 397 kts 232°
2026-05-05 17:03 45.76643 10.35089 37997 ft 397 kts 232°
2026-05-05 17:03 45.73199 10.28899 37994 ft 397 kts 232°
2026-05-05 17:04 45.69751 10.22726 38010 ft 397 kts 231°
2026-05-05 17:04 45.66304 10.16554 38002 ft 396 kts 232°
2026-05-05 17:05 45.62872 10.10414 37997 ft 395 kts 232°
2026-05-05 17:05 45.59431 10.04290 37993 ft 395 kts 231°
2026-05-05 17:06 45.55988 9.98185 38003 ft 395 kts 231°
2026-05-05 17:06 45.52568 9.92112 38007 ft 395 kts 231°
2026-05-05 17:07 45.49121 9.86014 37995 ft 395 kts 231°
2026-05-05 17:07 45.45678 9.79929 37998 ft 394 kts 231°
2026-05-05 17:08 45.42231 9.73844 38085 ft 394 kts 231°
2026-05-05 17:08 45.38778 9.67780 38103 ft 394 kts 231°
2026-05-05 17:09 45.35325 9.61729 38085 ft 393 kts 231°
2026-05-05 17:09 45.31905 9.55729 38071 ft 393 kts 231°
2026-05-05 17:10 45.28467 9.49700 38048 ft 392 kts 231°
2026-05-05 17:10 45.25028 9.43690 38029 ft 392 kts 231°
2026-05-05 17:11 45.21579 9.37692 37998 ft 392 kts 231°
2026-05-05 17:11 45.18126 9.31704 37985 ft 392 kts 231°
2026-05-05 17:12 45.14683 9.25732 37994 ft 391 kts 231°
2026-05-05 17:12 45.11269 9.19830 37992 ft 389 kts 231°
2026-05-05 17:13 45.07844 9.13914 37990 ft 388 kts 231°
2026-05-05 17:13 45.04416 9.08006 37988 ft 388 kts 231°
2026-05-05 17:14 45.00980 9.02108 37974 ft 388 kts 231°
2026-05-05 17:14 44.97548 8.96219 37978 ft 388 kts 231°
2026-05-05 17:15 44.94111 8.90339 37977 ft 388 kts 231°
2026-05-05 17:15 44.90675 8.84463 37982 ft 388 kts 231°
2026-05-05 17:16 44.87261 8.78638 37977 ft 388 kts 231°
2026-05-05 17:16 44.83825 8.72797 37952 ft 386 kts 231°
2026-05-05 17:17 44.80394 8.66988 37956 ft 386 kts 231°
2026-05-05 17:17 44.76964 8.61176 37962 ft 386 kts 231°
2026-05-05 17:18 44.73530 8.55358 37968 ft 386 kts 231°
2026-05-05 17:18 44.70091 8.49549 37971 ft 386 kts 231°
2026-05-05 17:19 44.66641 8.43752 37959 ft 387 kts 231°
2026-05-05 17:19 44.63192 8.37963 37963 ft 387 kts 231°
2026-05-05 17:20 44.59739 8.32178 37983 ft 387 kts 231°
2026-05-05 17:20 44.56282 8.26398 37980 ft 387 kts 231°
2026-05-05 17:21 44.52825 8.20612 37975 ft 387 kts 231°
2026-05-05 17:22 44.47638 8.11964 37970 ft 387 kts 231°
2026-05-05 17:22 44.44175 8.06220 37968 ft 386 kts 231°
2026-05-05 17:23 44.40711 8.00477 37973 ft 386 kts 231°
2026-05-05 17:23 44.37250 7.94741 37995 ft 386 kts 230°
2026-05-05 17:24 44.33781 7.89005 37970 ft 386 kts 231°
2026-05-05 17:24 44.30304 7.83275 37973 ft 387 kts 231°
2026-05-05 17:25 44.26774 7.77605 37968 ft 387 kts 225°
2026-05-05 17:25 44.22744 7.72599 37973 ft 388 kts 223°
2026-05-05 17:26 44.18695 7.67616 37966 ft 388 kts 223°
2026-05-05 17:26 44.14683 7.62648 37931 ft 387 kts 227°
2026-05-05 17:27 44.11121 7.57027 37971 ft 388 kts 230°
2026-05-05 17:27 44.07584 7.51353 37954 ft 388 kts 230°
2026-05-05 17:28 44.04613 7.46609 37958 ft 388 kts 230°
2026-05-05 17:28 44.01065 7.40951 37966 ft 389 kts 230°
2026-05-05 17:29 43.97513 7.35296 37956 ft 388 kts 230°
2026-05-05 17:29 43.93981 7.29697 37967 ft 387 kts 230°
2026-05-05 17:30 43.90436 7.24079 37967 ft 386 kts 230°
2026-05-05 17:30 43.86902 7.18465 37965 ft 386 kts 230°
2026-05-05 17:31 43.83356 7.12867 37964 ft 386 kts 230°
2026-05-05 17:31 43.79808 7.07294 37948 ft 385 kts 230°
2026-05-05 17:32 43.76289 7.01763 37959 ft 385 kts 230°
2026-05-05 17:32 43.72822 6.96132 37958 ft 384 kts 236°
2026-05-05 17:33 43.70494 6.89526 37960 ft 384 kts 247°
2026-05-05 17:33 43.68490 6.82687 37977 ft 384 kts 246°
2026-05-05 17:34 43.66465 6.75855 37969 ft 385 kts 246°
2026-05-05 17:34 43.64440 6.69008 37960 ft 385 kts 246°
2026-05-05 17:35 43.62415 6.62175 37952 ft 384 kts 246°
2026-05-05 17:35 43.60385 6.55352 37960 ft 384 kts 246°
2026-05-05 17:36 43.58372 6.48600 37951 ft 383 kts 246°
2026-05-05 17:36 43.56343 6.41820 37948 ft 382 kts 246°
2026-05-05 17:37 43.54304 6.35049 37942 ft 382 kts 246°
2026-05-05 17:37 43.52266 6.28284 37937 ft 382 kts 246°
2026-05-05 17:38 43.50229 6.21521 37934 ft 382 kts 246°
2026-05-05 17:38 43.48187 6.14758 37938 ft 382 kts 246°
2026-05-05 17:39 43.46145 6.08003 37948 ft 382 kts 246°
2026-05-05 17:39 43.44097 6.01250 37942 ft 382 kts 246°
2026-05-05 17:40 43.42044 5.94499 37940 ft 382 kts 246°
2026-05-05 17:40 43.39993 5.87756 37935 ft 382 kts 246°
2026-05-05 17:41 43.37926 5.81018 37932 ft 382 kts 245°
2026-05-05 17:41 43.35852 5.74286 37935 ft 382 kts 245°
2026-05-05 17:42 43.33796 5.67601 37957 ft 383 kts 245°
2026-05-05 17:42 43.31719 5.60858 37928 ft 384 kts 245°
2026-05-05 17:43 43.29636 5.54108 37904 ft 384 kts 245°
2026-05-05 17:43 43.27546 5.47361 37924 ft 384 kts 245°
2026-05-05 17:44 43.25431 5.40580 37927 ft 384 kts 245°
2026-05-05 17:44 43.23348 5.33890 37933 ft 384 kts 245°
2026-05-05 17:45 43.21247 5.27161 37960 ft 384 kts 245°
2026-05-05 17:45 43.19140 5.20435 37935 ft 384 kts 245°
2026-05-05 17:46 43.17027 5.13708 37932 ft 384 kts 245°
2026-05-05 17:46 43.14903 5.06988 37930 ft 385 kts 245°
2026-05-05 17:47 43.12781 5.00260 37929 ft 384 kts 245°
2026-05-05 17:47 43.10658 4.93542 37937 ft 384 kts 245°
2026-05-05 17:48 43.08527 4.86836 37934 ft 384 kts 245°
2026-05-05 17:48 43.06349 4.80159 37932 ft 384 kts 240°
2026-05-05 17:49 43.03019 4.74524 37926 ft 384 kts 223°
2026-05-05 17:49 42.99009 4.69698 37919 ft 384 kts 223°
2026-05-05 17:50 42.95003 4.64865 37918 ft 384 kts 223°
2026-05-05 17:50 42.91021 4.60064 37915 ft 384 kts 223°
2026-05-05 17:51 42.87021 4.55241 37932 ft 384 kts 223°
2026-05-05 17:51 42.83008 4.50415 37914 ft 385 kts 223°
2026-05-05 17:52 42.78988 4.45595 37908 ft 385 kts 223°
2026-05-05 17:52 42.74963 4.40767 37908 ft 386 kts 223°
2026-05-05 17:53 42.70930 4.35941 37908 ft 386 kts 223°
2026-05-05 17:53 42.66884 4.31116 37909 ft 386 kts 223°
2026-05-05 17:54 42.62840 4.26306 37910 ft 386 kts 223°
2026-05-05 17:54 42.58780 4.21478 37429 ft 394 kts 223°
2026-05-05 17:54 42.56717 4.19028 36823 ft 393 kts 223°
2026-05-05 17:55 42.54687 4.16623 36186 ft 391 kts 223°
2026-05-05 17:55 42.52655 4.14215 35564 ft 388 kts 223°
2026-05-05 17:55 42.50641 4.11829 35077 ft 382 kts 222°
2026-05-05 17:55 42.48655 4.09481 34613 ft 376 kts 222°
2026-05-05 17:56 42.46707 4.07179 34298 ft 366 kts 222°
2026-05-05 17:56 42.44815 4.04946 34013 ft 356 kts 222°
2026-05-05 17:56 42.42961 4.02762 33535 ft 350 kts 222°
2026-05-05 17:56 42.41137 4.00613 33115 ft 343 kts 222°
2026-05-05 17:57 42.39352 3.98510 32697 ft 337 kts 222°
2026-05-05 17:57 42.37600 3.96446 32280 ft 331 kts 222°
2026-05-05 17:57 42.35877 3.94414 31871 ft 326 kts 223°
2026-05-05 17:57 42.34182 3.92417 31477 ft 320 kts 223°
2026-05-05 17:58 42.32540 3.90487 31081 ft 314 kts 223°
2026-05-05 17:58 42.30907 3.88571 30724 ft 308 kts 223°
2026-05-05 17:58 42.29304 3.86694 30354 ft 303 kts 223°
2026-05-05 17:58 42.27726 3.84849 29984 ft 298 kts 223°
2026-05-05 17:59 42.26169 3.83032 29548 ft 294 kts 223°
2026-05-05 17:59 42.24634 3.81237 29132 ft 289 kts 223°
2026-05-05 17:59 42.23120 3.79466 28744 ft 288 kts 223°
2026-05-05 17:59 42.21602 3.77696 28331 ft 289 kts 223°
2026-05-05 18:00 42.20081 3.75924 27941 ft 288 kts 223°
2026-05-05 18:00 42.18569 3.74158 27547 ft 288 kts 223°
2026-05-05 18:00 42.17055 3.72386 27154 ft 288 kts 223°
2026-05-05 18:00 42.15546 3.70617 26765 ft 287 kts 223°
2026-05-05 18:01 42.14037 3.68851 26361 ft 287 kts 222°
2026-05-05 18:01 42.12529 3.67096 25956 ft 285 kts 222°
2026-05-05 18:01 42.11035 3.65359 25543 ft 283 kts 222°
2026-05-05 18:01 42.09551 3.63634 25147 ft 281 kts 222°
2026-05-05 18:02 42.08119 3.61854 24764 ft 280 kts 227°
2026-05-05 18:02 42.06723 3.59889 24496 ft 298 kts 226°
2026-05-05 18:02 42.05267 3.57851 24183 ft 304 kts 226°
2026-05-05 18:02 42.03812 3.55820 23893 ft 306 kts 226°
2026-05-05 18:03 42.02334 3.53760 23584 ft 306 kts 226°
2026-05-05 18:03 42.00854 3.51701 23248 ft 306 kts 226°
2026-05-05 18:03 41.99380 3.49651 22934 ft 305 kts 226°
2026-05-05 18:03 41.97907 3.47600 22631 ft 304 kts 226°
2026-05-05 18:04 41.96438 3.45552 22317 ft 304 kts 226°
2026-05-05 18:04 41.94973 3.43510 22014 ft 303 kts 226°
2026-05-05 18:04 41.93508 3.41470 21689 ft 303 kts 226°
2026-05-05 18:04 41.92057 3.39449 21408 ft 298 kts 226°
2026-05-05 18:05 41.90620 3.37453 21117 ft 296 kts 226°
2026-05-05 18:05 41.89197 3.35479 20823 ft 295 kts 226°
2026-05-05 18:05 41.87768 3.33503 20524 ft 295 kts 226°
2026-05-05 18:05 41.86336 3.31523 20219 ft 295 kts 226°
2026-05-05 18:06 41.84910 3.29552 19936 ft 294 kts 226°
2026-05-05 18:06 41.84446 3.28910 19836 ft 294 kts 226°
2026-05-05 18:06 41.82088 3.25644 19348 ft 293 kts 226°
2026-05-05 18:06 41.80670 3.23681 19059 ft 293 kts 226°
2026-05-05 18:07 41.79255 3.21728 18768 ft 292 kts 226°
2026-05-05 18:07 41.77838 3.19777 18474 ft 292 kts 226°
2026-05-05 18:07 41.76424 3.17826 18172 ft 291 kts 226°
2026-05-05 18:07 41.75016 3.15885 17864 ft 291 kts 226°
2026-05-05 18:08 41.73611 3.13946 17569 ft 290 kts 226°
2026-05-05 18:08 41.72208 3.12011 17199 ft 288 kts 226°
2026-05-05 18:08 41.70809 3.10092 16796 ft 287 kts 226°
2026-05-05 18:08 41.69448 3.08224 16418 ft 286 kts 226°
2026-05-05 18:09 41.68034 3.06282 16025 ft 285 kts 226°
2026-05-05 18:09 41.66655 3.04387 15671 ft 285 kts 225°
2026-05-05 18:09 41.65171 3.02680 15301 ft 286 kts 214°
2026-05-05 18:09 41.63408 3.01451 14931 ft 286 kts 206°
2026-05-05 18:10 41.61603 3.00340 14568 ft 285 kts 206°
2026-05-05 18:10 41.59802 2.99228 14197 ft 285 kts 206°
2026-05-05 18:10 41.58006 2.98118 13842 ft 285 kts 206°
2026-05-05 18:10 41.56212 2.97008 13463 ft 284 kts 206°
2026-05-05 18:11 41.54418 2.95897 13066 ft 283 kts 206°
2026-05-05 18:11 41.52631 2.94789 12664 ft 283 kts 206°
2026-05-05 18:11 41.50850 2.93685 12264 ft 282 kts 206°
2026-05-05 18:11 41.49129 2.92468 11875 ft 279 kts 218°
2026-05-05 18:12 41.47831 2.90580 11489 ft 277 kts 238°
2026-05-05 18:12 41.47171 2.88174 11119 ft 278 kts 255°
2026-05-05 18:12 41.46762 2.85661 10747 ft 277 kts 256°
2026-05-05 18:12 41.46360 2.83154 10380 ft 276 kts 256°
2026-05-05 18:13 41.45961 2.80661 10013 ft 274 kts 256°
2026-05-05 18:13 41.45565 2.78182 9644 ft 273 kts 256°
2026-05-05 18:13 41.45174 2.75722 9249 ft 271 kts 256°
2026-05-05 18:13 41.44784 2.73275 8859 ft 269 kts 256°
2026-05-05 18:14 41.44397 2.70874 8481 ft 267 kts 256°
2026-05-05 18:14 41.44008 2.68459 8097 ft 265 kts 256°
2026-05-05 18:14 41.43620 2.66065 7721 ft 264 kts 257°
2026-05-05 18:14 41.43232 2.63675 7347 ft 263 kts 258°
2026-05-05 18:15 41.42845 2.61291 6975 ft 262 kts 257°
2026-05-05 18:15 41.42457 2.58922 6614 ft 261 kts 257°
2026-05-05 18:15 41.42069 2.56564 6248 ft 258 kts 257°
2026-05-05 18:15 41.41695 2.54287 5861 ft 245 kts 258°
2026-05-05 18:16 41.41339 2.52107 5458 ft 238 kts 258°
2026-05-05 18:16 41.40988 2.49963 5096 ft 236 kts 258°
2026-05-05 18:16 41.40639 2.47837 4725 ft 234 kts 258°
2026-05-05 18:16 41.40292 2.45721 4341 ft 234 kts 258°
2026-05-05 18:17 41.40063 2.44323 4088 ft 233 kts 258°
2026-05-05 18:17 41.39714 2.42206 3713 ft 234 kts 258°
2026-05-05 18:17 41.39366 2.40096 3338 ft 233 kts 258°
2026-05-05 18:17 41.39020 2.37996 3030 ft 230 kts 258°
2026-05-05 18:18 41.38687 2.35970 2995 ft 220 kts 258°
2026-05-05 18:18 41.38357 2.33985 3002 ft 219 kts 257°
2026-05-05 18:18 41.37905 2.32040 3003 ft 220 kts 250°
2026-05-05 18:18 41.37313 2.30169 2992 ft 215 kts 247°
2026-05-05 18:19 41.36719 2.28416 2891 ft 200 kts 248°
2026-05-05 18:19 41.36174 2.26816 2698 ft 186 kts 247°
2026-05-05 18:19 41.35641 2.25248 2453 ft 182 kts 247°
2026-05-05 18:19 41.35132 2.23750 2217 ft 180 kts 247°
2026-05-05 18:20 41.34616 2.22234 1974 ft 177 kts 248°
2026-05-05 18:20 41.34115 2.20764 1749 ft 172 kts 247°
2026-05-05 18:20 41.33626 2.19328 1517 ft 167 kts 246°
2026-05-05 18:20 41.33176 2.18008 1299 ft 147 kts 247°
2026-05-05 18:21 41.32781 2.16851 1098 ft 136 kts 246°
2026-05-05 18:21 41.32399 2.15730 926 ft 132 kts 247°
2026-05-05 18:21 41.32023 2.14631 750 ft 132 kts 248°
2026-05-05 18:21 41.31646 2.13532 580 ft 129 kts 248°
2026-05-05 18:22 41.31279 2.12432 397 ft 131 kts 247°
2026-05-05 18:22 41.30903 2.11336 229 ft 132 kts 247°
2026-05-05 18:22 41.30519 2.10218 58 ft 133 kts 248°
2026-05-05 18:22 41.30159 2.09165 17 ft 115 kts 246°
2026-05-05 18:23 41.29917 2.08464 26 ft 31 kts 243°
2026-05-05 18:23 41.29794 2.08277 22 ft 28 kts 218°
2026-05-05 18:23 41.29693 2.08188 19 ft 9 kts 195°
2026-05-05 18:23 41.29636 2.08171 19 ft 8 kts 218°
2026-05-05 18:24 41.29609 2.08111 16 ft 7 kts 246°
2026-05-05 18:24 41.29590 2.08053 19 ft 7 kts 246°
2026-05-05 18:24 41.29567 2.07984 17 ft 9 kts 245°
2026-05-05 18:24 41.29542 2.07913 18 ft 8 kts 245°
2026-05-05 18:25 41.29519 2.07846 17 ft 12 kts 245°
2026-05-05 18:25 41.29493 2.07771 17 ft 14 kts 245°
2026-05-05 18:25 41.29434 2.07597 17 ft 17 kts 247°
2026-05-05 18:25 41.29339 2.07557 17 ft 17 kts 154°
2026-05-05 18:26 41.29250 2.07610 18 ft 11 kts 156°
2026-05-05 18:26 41.29183 2.07649 19 ft 10 kts 156°
2026-05-05 18:26 41.29158 2.07705 19 ft 8 kts 77°
2026-05-05 18:26 41.29179 2.07771 20 ft 7 kts 66°
2026-05-05 18:27 41.29199 2.07830 20 ft 7 kts 66°
2026-05-05 18:27 41.29199 2.07855 19 ft 1 kts 130°
2026-05-05 18:27 41.29187 2.07862 21 ft 4 kts 154°
2026-05-05 18:27 41.29151 2.07884 20 ft 6 kts 155°
2026-05-05 18:28 41.29134 2.07895 19 ft 0 kts 155°